Location: Avon School (historical)
(37.7514°N, 90.2201°W)
Time: 13:52:10
(UTC+00:00)

ACS3 Solar Sail - Visible Passes

Search period start: 07 October 2024 00:00
Search period end: 17 October 2024 00:00
Orbit: 962 x 1035 km, 97.4° (Epoch: 07 October)

Date Brightness Start Highest point End Pass type
(mag) Time Alt. Az. Time Alt. Az. Time Alt. Az.
07 Oct 1.7 01:49:54 67° E 01:50:14 68° ENE 01:56:33 10° N visible
07 Oct 4.1 03:35:04 17° W 03:35:04 17° W 03:38:39 10° NW visible
08 Oct 3.1 00:36:56 17° E 00:38:38 19° ENE 00:42:52 10° NNE visible
08 Oct 2.1 02:22:06 67° W 02:22:06 67° W 02:28:15 10° NNW visible
09 Oct 2.5 01:09:07 33° E 01:09:56 34° ENE 01:15:31 10° N visible
09 Oct 3.1 02:54:17 36° W 02:54:17 36° W 02:59:31 10° NNW visible
10 Oct 1.8 01:41:17 61° E 01:41:24 61° ENE 01:47:38 10° N visible
10 Oct 4.0 03:26:26 19° W 03:26:26 19° W 03:30:07 10° NW visible
11 Oct 3.2 00:28:17 16° E 00:29:49 17° ENE 00:33:38 10° NNE visible
11 Oct 2.0 02:13:27 73° WNW 02:13:27 73° WNW 02:19:22 10° NNW visible
12 Oct 2.6 01:00:25 30° ENE 01:01:03 30° ENE 01:06:25 10° N visible
12 Oct 3.0 02:45:34 39° WNW 02:45:34 39° WNW 02:50:41 10° NNW visible
13 Oct 1.9 01:32:33 54° ENE 01:32:33 54° ENE 01:38:34 10° N visible
13 Oct 3.9 03:17:42 21° WNW 03:17:42 21° WNW 03:21:25 10° NW visible
14 Oct 3.3 00:19:30 14° ENE 00:20:54 15° ENE 00:24:11 10° NNE visible
14 Oct 1.9 02:04:38 73° NNW 02:04:38 73° NNW 02:10:19 10° NNW visible
14 Oct 4.6 03:49:48 10° WNW 03:49:48 10° WNW 03:50:10 10° WNW visible
15 Oct 2.7 00:51:36 26° ENE 00:52:04 27° ENE 00:57:09 10° NNE visible
15 Oct 2.9 02:36:44 43° WNW 02:36:44 43° WNW 02:41:41 10° NNW visible
16 Oct 2.1 01:23:40 47° ENE 01:23:40 47° ENE 01:29:21 10° N visible
16 Oct 3.8 03:08:49 23° WNW 03:08:49 23° WNW 03:12:31 10° NW visible
